Total_Precipitation_Accumulation
0.33 0.21 0.01 0.00 0.00 0.00 0.00 0.00 0.01 0.02 0.02 0.01 0.02 0.00 0.00 0.01 0.00 0.00 0.00 0.00 0.00 0.00 0.00 0.00 0.00 0.00 0.00 0.00 0.00 0.00 0.00 0.00 0.00 0.00 0.00 0.00 0.00 0.00 0.00 0.00 0.00 0.00 0.00 0.00 0.00 0.00 0.00 0.00 0.02 0.05 0.05 0.04 0.04 0.03 0.03 0.04 0.05 0.05 0.13 0.17 0.22 0.20 0.21 0.24 0.24 0.19 0.09 0.05 0.11 0.07 0.19 0.15 0.13 0.06 0.02 0.02 0.00 0.07 0.01 0.01 0.00 0.00 0.00 0.01 0.00
0.04 0.17 0.30 0.02 0.01 0.00 0.00 0.02 0.02 0.00 0.01 0.00 0.00 0.00 0.00 0.01 0.04 0.01 0.00 0.00 0.00 0.00 0.00 0.00 0.00 0.00 0.00 0.00 0.00 0.00 0.00 0.00 0.00 0.00 0.00 0.00 0.00 0.00 0.00 0.00 0.00 0.00 0.00 0.00 0.00 0.00 0.00 0.00 0.00 0.00 0.04 0.02 0.04 0.03 0.03 0.04 0.04 0.06 0.08 0.11 0.16 0.18 0.19 0.25 0.19 0.19 0.12 0.07 0.11 0.13 0.07 0.10 0.25 0.19 0.18 0.02 0.00 0.00 0.00 0.00 0.00 0.00 0.01 0.01 0.03
0.02 0.03 0.05 0.09 0.06 0.06 0.03 0.03 0.02 0.00 0.01 0.01 0.01 0.00 0.00 0.01 0.03 0.02 0.00 0.01 0.00 0.00 0.00 0.00 0.00 0.00 0.00 0.00 0.00 0.00 0.00 0.00 0.00 0.00 0.00 0.00 0.00 0.00 0.00 0.00 0.00 0.00 0.00 0.00 0.00 0.00 0.00 0.00 0.00 0.00 0.00 0.02 0.04 0.03 0.07 0.04 0.03 0.03 0.05 0.06 0.12 0.22 0.20 0.22 0.27 0.23 0.21 0.19 0.14 0.19 0.12 0.14 0.08 0.05 0.06 0.11 0.03 0.00 0.00 0.00 0.00 0.00 0.00 0.00 0.00
0.01 0.01 0.04 0.02 0.03 0.03 0.02 0.03 0.01 0.01 0.02 0.02 0.01 0.00 0.00 0.02 0.01 0.01 0.00 0.01 0.01 0.00 0.00 0.04 0.02 0.00 0.00 0.00 0.00 0.00 0.00 0.00 0.01 0.00 0.00 0.00 0.00 0.00 0.00 0.00 0.00 0.00 0.00 0.00 0.00 0.00 0.00 0.00 0.00 0.00 0.01 0.01 0.02 0.02 0.04 0.04 0.06 0.05 0.07 0.08 0.19 0.16 0.20 0.25 0.25 0.24 0.18 0.15 0.12 0.16 0.12 0.14 0.11 0.06 0.04 0.04 0.11 0.02 0.01 0.01 0.01 0.01 0.00 0.00 0.00
0.01 0.02 0.01 0.01 0.05 0.05 0.01 0.02 0.02 0.01 0.03 0.02 0.02 0.03 0.02 0.03 0.01 0.02 0.01 0.01 0.01 0.02 0.01 0.02 0.01 0.00 0.01 0.00 0.00 0.00 0.00 0.00 0.00 0.00 0.00 0.00 0.00 0.00 0.00 0.00 0.00 0.00 0.00 0.00 0.00 0.00 0.00 0.00 0.00 0.00 0.00 0.01 0.01 0.01 0.03 0.04 0.04 0.06 0.07 0.05 0.11 0.19 0.19 0.27 0.14 0.15 0.21 0.19 0.16 0.16 0.17 0.13 0.13 0.15 0.07 0.04 0.04 0.03 0.06 0.07 0.02 0.02 0.01 0.00 0.00
0.01 0.01 0.02 0.04 0.06 0.08 0.10 0.08 0.05 0.09 0.09 0.12 0.09 0.08 0.05 0.06 0.04 0.03 0.08 0.02 0.04 0.04 0.08 0.12 0.12 0.04 0.02 0.01 0.01 0.01 0.00 0.00 0.01 0.00 0.00 0.00 0.01 0.00 0.00 0.00 0.00 0.00 0.00 0.00 0.00 0.00 0.00 0.00 0.00 0.00 0.00 0.00 0.00 0.04 0.02 0.06 0.07 0.10 0.11 0.08 0.10 0.21 0.16 0.19 0.16 0.26 0.24 0.16 0.20 0.15 0.42 0.16 0.30 0.42 0.18 0.07 0.06 0.02 0.01 0.02 0.03 0.04 0.02 0.01 0.00
0.00 0.00 0.00 0.00 0.02 0.05 0.12 0.19 0.36 0.37 0.45 0.21 0.14 0.11 0.14 0.16 0.07 0.09 0.06 0.08 0.67 0.27 0.37 0.37 0.40 0.15 0.08 0.08 0.01 0.01 0.01 0.02 0.01 0.00 0.00 0.00 0.00 0.00 0.00 0.00 0.00 0.00 0.00 0.00 0.00 0.00 0.00 0.00 0.00 0.00 0.00 0.00 0.00 0.01 0.01 0.02 0.07 0.13 0.06 0.04 0.03 0.22 0.23 0.14 0.14 0.17 0.18 0.16 0.17 0.17 0.32 0.28 0.29 0.62 0.19 0.09 0.03 0.09 0.04 0.06 0.02 0.01 0.02 0.02 0.01
0.00 0.00 0.00 0.00 0.00 0.00 0.00 0.03 0.06 0.15 0.15 0.32 0.30 0.33 0.36 0.40 0.51 0.30 0.43 0.60 0.31 0.31 0.42 0.48 0.29 0.26 0.20 0.07 0.10 0.17 0.33 0.17 0.12 0.01 0.01 0.01 0.00 0.00 0.00 0.00 0.00 0.00 0.00 0.00 0.00 0.00 0.00 0.00 0.00 0.00 0.00 0.00 0.00 0.00 0.00 0.01 0.05 0.05 0.16 0.14 0.18 0.22 0.25 0.23 0.28 0.24 0.16 0.11 0.13 0.15 0.27 0.35 0.37 0.26 0.44 0.27 0.08 0.19 0.08 0.14 0.20 0.12 0.24 0.03 0.02
0.00 0.01 0.00 0.00 0.00 0.00 0.00 0.00 0.05 0.04 0.05 0.33 0.28 0.04 0.29 0.55 0.61 0.71 0.80 0.37 0.58 0.67 0.36 0.27 0.16 0.24 0.16 0.25 0.30 0.64 0.82 0.56 0.18 0.08 0.02 0.00 0.00 0.00 0.00 0.00 0.00 0.00 0.00 0.00 0.00 0.00 0.00 0.00 0.00 0.00 0.00 0.00 0.00 0.00 0.00 0.00 0.02 0.15 0.14 0.14 0.25 0.17 0.22 0.52 0.37 0.31 0.33 0.42 0.49 0.27 0.33 0.26 0.37 0.19 0.21 0.11 0.03 0.03 0.02 0.02 0.03 0.28 0.16 0.24 0.07
0.00 0.00 0.00 0.01 0.01 0.00 0.00 0.00 0.01 0.00 0.09 0.08 0.20 0.57 1.01 1.37 1.10 0.49 0.46 0.60 0.39 0.51 0.31 0.37 0.21 0.24 0.27 0.19 0.22 0.42 0.22 0.04 0.05 0.01 0.00 0.00 0.01 0.00 0.00 0.00 0.00 0.00 0.00 0.00 0.00 0.00 0.00 0.00 0.00 0.00 0.00 0.00 0.00 0.00 0.00 0.00 0.00 0.02 0.02 0.19 0.08 0.29 0.24 0.29 0.30 0.48 0.59 0.54 0.32 0.57 0.62 0.44 0.17 0.09 0.07 0.03 0.07 0.51 0.01 0.01 0.01 0.00 0.01 0.04 0.06
0.05 0.25 0.17 0.15 0.11 0.16 0.35 0.56 0.41 0.37 0.72 1.40 1.71 0.84 0.54 0.47 0.26 0.30 0.36 0.31 0.32 0.23 0.22 0.05 0.03 0.04 0.25 0.33 0.21 0.19 0.14 0.12 0.02 0.03 0.00 0.00 0.01 0.00 0.00 0.00 0.00 0.00 0.00 0.00 0.00 0.00 0.00 0.00 0.00 0.00 0.00 0.00 0.00 0.00 0.00 0.00 0.00 0.00 0.01 0.08 0.18 0.06 0.53 0.49 0.44 0.32 0.49 0.38 0.30 0.28 0.42 0.44 0.30 0.13 0.07 0.10 0.13 0.05 0.12 0.06 0.06 0.02 0.05 0.06 0.03
0.35 0.36 0.54 0.60 0.58 0.57 0.35 0.42 0.50 0.37 0.25 0.24 0.17 0.24 0.16 0.18 0.12 0.22 0.15 0.14 0.07 0.08 0.01 0.01 0.02 0.06 0.02 0.04 0.02 0.01 0.01 0.00 0.00 0.00 0.00 0.00 0.00 0.01 0.01 0.00 0.00 0.00 0.00 0.00 0.00 0.00 0.00 0.00 0.00 0.00 0.00 0.00 0.00 0.00 0.00 0.00 0.00 0.00 0.00 0.02 0.10 0.11 0.20 0.32 0.31 0.53 0.48 0.28 0.21 0.26 0.32 0.62 0.30 0.19 0.07 0.05 0.03 0.09 0.04 0.03 0.03 0.05 0.06 0.03 0.06
0.12 0.20 0.18 0.12 0.31 0.31 0.33 0.22 0.17 0.22 0.09 0.13 0.26 0.13 0.07 0.14 0.10 0.09 0.04 0.07 0.03 0.01 0.01 0.01 0.01 0.01 0.01 0.00 0.00 0.00 0.00 0.00 0.00 0.00 0.00 0.00 0.00 0.01 0.03 0.01 0.01 0.00 0.00 0.00 0.00 0.00 0.00 0.00 0.00 0.00 0.00 0.00 0.00 0.00 0.00 0.00 0.00 0.00 0.00 0.00 0.01 0.02 0.05 0.10 0.64 0.55 0.33 0.79 0.38 0.37 0.17 0.17 0.31 0.11 0.05 0.05 0.13 0.11 0.04 0.05 0.02 0.04 0.02 0.02 0.01
0.12 0.16 0.06 0.06 0.06 0.06 0.10 0.08 0.08 0.23 0.32 0.21 0.19 0.12 0.09 0.08 0.03 0.02 0.03 0.03 0.04 0.05 0.01 0.03 0.01 0.00 0.01 0.00 0.00 0.00 0.01 0.00 0.00 0.00 0.00 0.00 0.00 0.00 0.00 0.01 0.01 0.01 0.01 0.00 0.00 0.00 0.00 0.00 0.00 0.00 0.00 0.00 0.00 0.00 0.00 0.00 0.00 0.01 0.02 0.05 0.03 0.02 0.02 0.03 0.11 0.25 0.85 0.93 0.49 0.30 0.17 0.39 0.43 0.32 0.15 0.27 0.11 0.13 0.12 0.02 0.10 0.02 0.02 0.07 0.11
0.07 0.06 0.08 0.13 0.19 0.14 0.10 0.25 0.29 0.17 0.10 0.11 0.10 0.03 0.03 0.03 0.03 0.04 0.02 0.02 0.05 0.04 0.02 0.06 0.02 0.01 0.01 0.01 0.01 0.03 0.01 0.00 0.00 0.00 0.00 0.00 0.00 0.00 0.00 0.01 0.01 0.01 0.01 0.01 0.00 0.00 0.00 0.00 0.00 0.00 0.00 0.00 0.00 0.00 0.00 0.00 0.02 0.01 0.01 0.01 0.02 0.03 0.14 0.48 0.39 0.14 0.21 0.42 0.23 0.51 0.42 0.36 0.29 0.25 0.63 0.34 0.15 0.12 0.16 0.14 0.31 0.52 0.38 0.32 0.26
0.18 0.38 0.34 0.20 0.17 0.12 0.23 0.22 0.18 0.10 0.14 0.05 0.05 0.02 0.01 0.01 0.01 0.01 0.01 0.01 0.01 0.01 0.01 0.01 0.01 0.01 0.01 0.01 0.02 0.01 0.00 0.00 0.00 0.00 0.00 0.00 0.00 0.03 0.00 0.01 0.01 0.01 0.01 0.01 0.01 0.00 0.00 0.00 0.00 0.00 0.00 0.00 0.00 0.00 0.00 0.01 0.04 0.03 0.03 0.02 0.08 0.06 0.16 0.10 0.13 0.34 0.25 0.36 0.63 0.41 0.50 0.40 0.24 0.17 0.20 0.26 0.20 0.32 0.30 0.26 0.13 0.11 0.07 0.08 0.05
0.18 0.21 0.22 0.26 0.17 0.29 0.17 0.12 0.19 0.08 0.09 0.08 0.13 0.13 0.11 0.03 0.09 0.04 0.03 0.02 0.03 0.01 0.02 0.01 0.01 0.01 0.01 0.01 0.02 0.01 0.00 0.00 0.00 0.00 0.00 0.00 0.02 0.01 0.01 0.01 0.01 0.01 0.01 0.01 0.01 0.00 0.00 0.00 0.00 0.00 0.00 0.00 0.00 0.00 0.00 0.00 0.02 0.02 0.03 0.03 0.04 0.07 0.02 0.13 0.14 0.22 0.33 0.86 0.42 0.23 0.76 0.26 0.42 0.22 0.22 0.27 0.24 0.46 0.64 0.45 0.19 0.05 0.03 0.02 0.02
0.04 0.09 0.13 0.24 0.19 0.20 0.29 0.32 0.21 0.27 0.17 0.05 0.05 0.04 0.10 0.15 0.09 0.06 0.20 0.14 0.02 0.00 0.01 0.01 0.02 0.01 0.01 0.04 0.01 0.00 0.00 0.00 0.00 0.00 0.00 0.00 0.01 0.01 0.01 0.01 0.01 0.01 0.01 0.00 0.01 0.01 0.00 0.00 0.00 0.00 0.00 0.00 0.00 0.00 0.00 0.00 0.01 0.02 0.02 0.03 0.05 0.03 0.05 0.04 0.05 0.17 0.12 0.11 0.24 0.31 0.39 0.25 0.27 0.32 0.22 0.14 0.29 0.14 0.37 0.29 0.09 0.27 0.29 0.06 0.02
0.02 0.03 0.06 0.07 0.08 0.32 0.33 0.19 0.29 0.25 0.24 0.45 0.16 0.13 0.17 0.05 0.03 0.01 0.02 0.02 0.04 0.15 0.01 0.12 0.13 0.09 0.02 0.01 0.00 0.01 0.00 0.00 0.00 0.00 0.00 0.00 0.02 0.01 0.01 0.01 0.02 0.01 0.01 0.01 0.01 0.01 0.00 0.00 0.00 0.00 0.00 0.00 0.00 0.00 0.00 0.00 0.02 0.01 0.01 0.02 0.05 0.02 0.01 0.01 0.06 0.08 0.14 0.17 0.14 0.20 0.30 0.15 0.26 0.37 0.39 0.21 0.30 0.21 0.27 0.28 0.37 0.06 0.05 0.06 0.04
0.02 0.03 0.05 0.13 0.19 0.23 0.29 0.14 0.14 0.14 0.15 0.11 0.35 0.38 0.20 0.22 0.10 0.34 0.25 0.08 0.04 0.02 0.02 0.05 0.09 0.03 0.02 0.01 0.01 0.01 0.01 0.00 0.00 0.00 0.00 0.00 0.00 0.01 0.01 0.03 0.03 0.02 0.02 0.01 0.02 0.01 0.01 0.00 0.00 0.00 0.00 0.00 0.00 0.00 0.00 0.00 0.01 0.02 0.03 0.03 0.08 0.01 0.01 0.08 0.03 0.05 0.14 0.14 0.20 0.25 0.34 0.39 0.10 0.33 0.49 0.39 0.46 0.44 0.25 0.80 0.54 0.26 0.29 0.04 0.03
0.09 0.18 0.20 0.17 0.08 0.28 0.48 0.37 0.31 0.34 0.38 0.31 0.16 0.07 0.05 0.04 0.04 0.09 0.15 0.19 0.30 0.40 0.18 0.17 0.08 0.06 0.02 0.01 0.01 0.02 0.02 0.01 0.00 0.00 0.00 0.00 0.01 0.02 0.02 0.03 0.03 0.03 0.03 0.02 0.02 0.02 0.01 0.00 0.00 0.00 0.00 0.00 0.00 0.00 0.00 0.00 0.00 0.03 0.10 0.13 0.04 0.15 0.04 0.03 0.02 0.13 0.34 0.17 0.21 0.37 0.26 0.23 0.43 0.51 0.23 0.59 0.31 0.23 0.50 0.48 0.24 0.23 0.38 0.15 0.19
0.37 0.44 0.45 0.29 0.37 0.55 0.29 0.23 0.31 0.22 0.13 0.07 0.10 0.22 0.17 0.11 0.09 0.20 0.08 0.10 0.11 0.07 0.05 0.08 0.09 0.02 0.01 0.00 0.01 0.01 0.01 0.02 0.01 0.00 0.00 0.01 0.01 0.01 0.02 0.03 0.03 0.05 0.05 0.04 0.03 0.02 0.01 0.01 0.01 0.01 0.00 0.00 0.00 0.00 0.00 0.00 0.00 0.03 0.08 0.05 0.05 0.09 0.04 0.08 0.06 0.06 0.09 0.14 0.49 0.16 0.21 0.36 0.43 0.23 0.25 0.21 0.25 0.34 0.25 0.22 0.41 0.38 0.46 0.19 0.15
0.44 0.44 0.32 0.42 0.56 0.41 0.25 0.19 0.12 0.04 0.04 0.19 0.24 0.15 0.08 0.09 0.09 0.10 0.12 0.09 0.07 0.09 0.08 0.05 0.03 0.05 0.04 0.04 0.03 0.01 0.04 0.01 0.00 0.01 0.01 0.00 0.01 0.02 0.03 0.04 0.03 0.05 0.08 0.07 0.05 0.03 0.01 0.00 0.01 0.01 0.01 0.01 0.00 0.00 0.00 0.00 0.02 0.08 0.02 0.02 0.02 0.03 0.05 0.07 0.08 0.10 0.27 0.30 0.22 0.27 0.20 0.32 0.29 0.61 0.37 0.31 0.28 0.42 0.25 0.25 0.23 0.20 0.23 0.26 0.21
0.45 0.22 0.21 0.20 0.38 0.27 0.12 0.09 0.09 0.08 0.06 0.12 0.07 0.14 0.14 0.16 0.10 0.07 0.06 0.04 0.08 0.03 0.01 0.01 0.02 0.03 0.09 0.01 0.01 0.01 0.02 0.06 0.01 0.01 0.01 0.02 0.02 0.04 0.05 0.05 0.04 0.05 0.07 0.07 0.04 0.03 0.03 0.04 0.02 0.01 0.01 0.01 0.01 0.01 0.00 0.01 0.06 0.02 0.02 0.07 0.03 0.02 0.08 0.08 0.10 0.14 0.22 0.15 0.31 0.31 0.37 0.48 0.43 0.29 0.29 0.34 0.32 0.32 0.45 0.42 0.32 0.26 0.15 0.14 0.17
0.26 0.29 0.21 0.23 0.27 0.35 0.13 0.19 0.12 0.17 0.05 0.03 0.05 0.06 0.09 0.04 0.08 0.10 0.07 0.10 0.11 0.08 0.09 0.03 0.05 0.02 0.02 0.01 0.01 0.01 0.03 0.03 0.02 0.02 0.02 0.02 0.04 0.06 0.07 0.06 0.06 0.06 0.09 0.06 0.04 0.04 0.03 0.03 0.03 0.02 0.01 0.01 0.01 0.03 0.03 0.02 0.01 0.02 0.02 0.05 0.12 0.12 0.07 0.10 0.12 0.19 0.20 0.16 0.18 0.20 0.17 0.21 0.23 0.22 0.52 0.88 0.72 0.39 0.34 0.43 0.40 0.38 0.26 0.25 0.31
0.29 0.33 0.46 0.27 0.14 0.09 0.09 0.14 0.07 0.06 0.03 0.04 0.03 0.06 0.08 0.08 0.05 0.06 0.04 0.04 0.03 0.06 0.08 0.02 0.02 0.02 0.03 0.09 0.04 0.03 0.00 0.00 0.00 0.00 0.03 0.05 0.08 0.08 0.08 0.08 0.07 0.06 0.08 0.10 0.04 0.03 0.03 0.07 0.07 0.06 0.04 0.02 0.04 0.05 0.03 0.02 0.01 0.01 0.01 0.03 0.10 0.06 0.08 0.10 0.12 0.15 0.16 0.13 0.16 0.14 0.13 0.17 0.22 0.19 0.31 0.45 0.28 0.27 0.26 0.36 0.34 0.36 0.31 0.34 0.39
0.21 0.27 0.17 0.15 0.08 0.09 0.05 0.09 0.11 0.11 0.11 0.09 0.09 0.07 0.06 0.05 0.05 0.05 0.04 0.05 0.03 0.06 0.03 0.01 0.02 0.04 0.10 0.04 0.02 0.04 0.06 0.03 0.01 0.01 0.03 0.07 0.09 0.14 0.13 0.11 0.09 0.12 0.19 0.15 0.12 0.11 0.09 0.08 0.06 0.05 0.05 0.06 0.07 0.06 0.06 0.05 0.06 0.05 0.04 0.13 0.07 0.05 0.05 0.07 0.08 0.09 0.13 0.19 0.12 0.15 0.31 0.43 0.43 0.30 0.26 0.14 0.18 0.17 0.23 0.29 0.44 0.40 0.21 0.33 0.34
0.32 0.25 0.28 0.25 0.20 0.18 0.15 0.08 0.06 0.06 0.06 0.03 0.06 0.06 0.06 0.07 0.07 0.10 0.07 0.08 0.08 0.08 0.04 0.05 0.04 0.05 0.05 0.05 0.07 0.07 0.03 0.03 0.03 0.04 0.03 0.08 0.11 0.13 0.18 0.10 0.11 0.11 0.12 0.08 0.07 0.08 0.09 0.08 0.09 0.10 0.10 0.12 0.14 0.15 0.16 0.14 0.10 0.08 0.08 0.06 0.05 0.06 0.10 0.19 0.21 0.34 0.26 0.13 0.27 0.16 0.24 0.19 0.22 0.15 0.21 0.21 0.22 0.22 0.30 0.28 0.23 0.25 0.23 0.27 0.34
0.31 0.32 0.25 0.23 0.14 0.11 0.12 0.13 0.12 0.15 0.10 0.05 0.04 0.05 0.13 0.22 0.08 0.07 0.03 0.04 0.05 0.08 0.14 0.06 0.06 0.05 0.06 0.07 0.08 0.06 0.07 0.09 0.06 0.05 0.05 0.07 0.12 0.15 0.18 0.17 0.12 0.10 0.06 0.05 0.10 0.11 0.12 0.14 0.15 0.15 0.11 0.11 0.12 0.11 0.13 0.15 0.17 0.14 0.08 0.06 0.07 0.09 0.11 0.15 0.27 0.19 0.18 0.16 0.24 0.20 0.16 0.21 0.43 0.42 0.37 0.27 0.29 0.18 0.18 0.19 0.21 0.27 0.28 0.44 0.28
0.29 0.24 0.17 0.15 0.11 0.07 0.06 0.05 0.05 0.12 0.18 0.13 0.13 0.03 0.01 0.01 0.03 0.08 0.07 0.04 0.04 0.04 0.03 0.09 0.09 0.11 0.08 0.05 0.05 0.07 0.11 0.12 0.08 0.06 0.06 0.08 0.11 0.14 0.18 0.22 0.22 0.13 0.08 0.08 0.13 0.15 0.10 0.09 0.08 0.08 0.10 0.09 0.10 0.11 0.11 0.11 0.13 0.19 0.20 0.11 0.08 0.13 0.14 0.14 0.13 0.12 0.11 0.12 0.15 0.17 0.28 0.24 0.26 0.32 0.26 0.26 0.25 0.27 0.24 0.22 0.22 0.24 0.29 0.31 0.32
0.23 0.21 0.20 0.19 0.16 0.10 0.07 0.05 0.06 0.07 0.09 0.09 0.03 0.01 0.02 0.02 0.01 0.01 0.01 0.04 0.05 0.06 0.03 0.05 0.07 0.07 0.07 0.07 0.04 0.02 0.04 0.08 0.13 0.09 0.08 0.09 0.13 0.18 0.20 0.22 0.27 0.33 0.31 0.26 0.31 0.22 0.13 0.10 0.08 0.06 0.06 0.07 0.07 0.08 0.09 0.11 0.12 0.12 0.16 0.18 0.14 0.10 0.11 0.13 0.13 0.13 0.12 0.15 0.19 0.21 0.20 0.36 0.33 0.27 0.28 0.34 0.30 0.29 0.23 0.29 0.27 0.53 0.33 0.35 0.32
0.24 0.22 0.20 0.18 0.16 0.14 0.12 0.10 0.09 0.07 0.06 0.04 0.09 0.03 0.03 0.03 0.03 0.03 0.01 0.01 0.02 0.03 0.03 0.04 0.05 0.07 0.07 0.05 0.05 0.05 0.07 0.15 0.17 0.11 0.09 0.09 0.13 0.20 0.26 0.30 0.36 0.41 0.45 0.41 0.33 0.25 0.21 0.17 0.13 0.10 0.08 0.10 0.09 0.08 0.10 0.13 0.15 0.15 0.17 0.22 0.24 0.14 0.10 0.11 0.12 0.10 0.17 0.20 0.20 0.24 0.34 0.34 0.34 0.29 0.28 0.32 0.41 0.39 0.36 0.34 0.38 0.31 0.28 0.28 0.27
0.24 0.25 0.17 0.15 0.13 0.14 0.13 0.11 0.09 0.08 0.05 0.04 0.05 0.02 0.01 0.02 0.02 0.03 0.01 0.00 0.01 0.03 0.03 0.04 0.05 0.06 0.10 0.08 0.05 0.05 0.08 0.14 0.18 0.14 0.13 0.13 0.14 0.19 0.27 0.30 0.33 0.34 0.37 0.42 0.42 0.39 0.33 0.30 0.24 0.17 0.15 0.14 0.14 0.15 0.15 0.13 0.15 0.24 0.19 0.20 0.24 0.24 0.11 0.11 0.11 0.17 0.15 0.17 0.19 0.24 0.27 0.35 0.40 0.39 0.30 0.32 0.38 0.48 0.31 0.32 0.26 0.24 0.47 0.42 0.32
0.14 0.11 0.10 0.09 0.09 0.10 0.10 0.08 0.07 0.05 0.03 0.02 0.01 0.01 0.01 0.01 0.00 0.00 0.02 0.01 0.02 0.02 0.03 0.03 0.04 0.06 0.11 0.11 0.07 0.06 0.07 0.10 0.20 0.19 0.17 0.15 0.14 0.16 0.20 0.25 0.26 0.27 0.28 0.29 0.30 0.33 0.36 0.35 0.31 0.28 0.26 0.22 0.19 0.19 0.18 0.16 0.17 0.18 0.24 0.32 0.23 0.24 0.23 0.15 0.17 0.20 0.22 0.21 0.28 0.34 0.31 0.32 0.41 0.38 0.36 0.44 0.44 0.45 0.46 0.41 0.35 0.36 0.32 0.27 0.32
0.07 0.05 0.05 0.03 0.03 0.04 0.05 0.04 0.04 0.04 0.03 0.02 0.02 0.01 0.01 0.00 0.00 0.01 0.02 0.03 0.03 0.05 0.05 0.06 0.06 0.07 0.12 0.12 0.10 0.08 0.07 0.10 0.17 0.12 0.10 0.14 0.16 0.15 0.20 0.24 0.28 0.31 0.31 0.29 0.27 0.25 0.27 0.30 0.32 0.31 0.28 0.27 0.34 0.29 0.31 0.25 0.22 0.21 0.20 0.29 0.28 0.30 0.32 0.33 0.28 0.23 0.24 0.28 0.29 0.38 0.37 0.38 0.36 0.40 0.40 0.34 0.37 0.60 0.51 0.38 0.55 0.42 0.40 0.38 0.47
0.05 0.02 0.01 0.01 0.01 0.01 0.03 0.04 0.05 0.05 0.04 0.03 0.02 0.01 0.01 0.00 0.00 0.00 0.01 0.02 0.04 0.05 0.06 0.08 0.08 0.07 0.08 0.07 0.08 0.09 0.07 0.08 0.11 0.09 0.07 0.07 0.11 0.17 0.18 0.21 0.24 0.28 0.30 0.31 0.31 0.28 0.28 0.30 0.31 0.28 0.28 0.29 0.39 0.39 0.38 0.35 0.27 0.27 0.26 0.37 0.39 0.24 0.35 0.39 0.35 0.31 0.28 0.27 0.26 0.24 0.26 0.37 0.34 0.44 0.53 0.43 0.57 0.54 0.72 0.79 0.62 0.71 0.42 0.54 0.52
0.04 0.01 0.00 0.00 0.00 0.00 0.01 0.02 0.02 0.02 0.02 0.01 0.01 0.00 0.00 0.00 0.00 0.00 0.00 0.01 0.03 0.05 0.07 0.07 0.06 0.06 0.08 0.08 0.08 0.07 0.06 0.07 0.12 0.08 0.06 0.06 0.09 0.13 0.19 0.22 0.25 0.26 0.28 0.32 0.31 0.29 0.27 0.29 0.34 0.34 0.31 0.34 0.33 0.37 0.36 0.33 0.30 0.35 0.39 0.45 0.42 0.45 0.38 0.36 0.33 0.30 0.31 0.32 0.28 0.30 0.35 0.40 0.41 0.45 0.48 0.65 0.56 0.71 0.59 0.46 0.71 0.45 0.53 0.45 0.53
0.06 0.04 0.00 0.00 0.00 0.00 0.00 0.00 0.01 0.01 0.01 0.01 0.00 0.00 0.00 0.00 0.00 0.00 0.00 0.00 0.02 0.04 0.06 0.05 0.04 0.07 0.14 0.16 0.11 0.07 0.07 0.08 0.13 0.14 0.07 0.07 0.09 0.09 0.13 0.20 0.20 0.22 0.28 0.31 0.33 0.31 0.28 0.25 0.27 0.32 0.33 0.33 0.37 0.30 0.30 0.31 0.35 0.37 0.42 0.47 0.54 0.50 0.44 0.43 0.50 0.48 0.40 0.41 0.36 0.36 0.31 0.31 0.32 0.43 0.48 0.55 0.40 0.39 0.60 0.42 0.42 0.53 0.61 0.46 0.55
0.03 0.02 0.01 0.01 0.01 0.00 0.00 0.00 0.00 0.00 0.00 0.00 0.00 0.00 0.00 0.00 0.00 0.00 0.00 0.00 0.00 0.02 0.04 0.05 0.07 0.09 0.15 0.17 0.17 0.11 0.07 0.11 0.17 0.16 0.10 0.12 0.12 0.10 0.09 0.12 0.19 0.20 0.25 0.32 0.32 0.32 0.35 0.37 0.36 0.36 0.36 0.39 0.38 0.35 0.37 0.36 0.40 0.52 0.45 0.41 0.43 0.38 0.47 0.49 0.44 0.49 0.50 0.39 0.37 0.36 0.40 0.39 0.35 0.34 0.38 0.49 0.46 0.47 0.37 0.41 0.43 0.35 0.36 0.45 0.48
0.03 0.02 0.01 0.01 0.01 0.00 0.00 0.00 0.00 0.00 0.00 0.00 0.00 0.00 0.00 0.00 0.00 0.00 0.00 0.00 0.00 0.01 0.02 0.05 0.09 0.13 0.16 0.19 0.20 0.14 0.11 0.15 0.22 0.15 0.13 0.16 0.16 0.13 0.11 0.13 0.18 0.25 0.30 0.34 0.37 0.37 0.39 0.41 0.41 0.39 0.40 0.43 0.44 0.42 0.39 0.33 0.32 0.38 0.46 0.51 0.49 0.44 0.40 0.44 0.45 0.42 0.44 0.43 0.36 0.29 0.30 0.38 0.33 0.32 0.33 0.45 0.35 0.33 0.33 0.43 0.39 0.35 0.39 0.31 0.30
0.02 0.01 0.01 0.01 0.00 0.00 0.00 0.00 0.01 0.00 0.00 0.00 0.00 0.00 0.00 0.00 0.00 0.00 0.00 0.00 0.00 0.00 0.01 0.03 0.06 0.11 0.15 0.19 0.18 0.13 0.12 0.17 0.21 0.19 0.17 0.16 0.14 0.12 0.11 0.12 0.16 0.24 0.35 0.40 0.39 0.36 0.39 0.41 0.42 0.44 0.44 0.45 0.51 0.57 0.56 0.46 0.41 0.39 0.40 0.45 0.44 0.36 0.36 0.43 0.43 0.40 0.39 0.40 0.43 0.30 0.29 0.42 0.48 0.37 0.42 0.42 0.37 0.40 0.45 0.39 0.42 0.39 0.39 0.42 0.35
0.02 0.01 0.01 0.00 0.00 0.00 0.01 0.00 0.02 0.00 0.00 0.00 0.00 0.00 0.00 0.00 0.00 0.00 0.00 0.00 0.00 0.00 0.00 0.01 0.03 0.07 0.10 0.14 0.16 0.13 0.15 0.19 0.23 0.23 0.18 0.14 0.15 0.14 0.16 0.17 0.22 0.32 0.39 0.46 0.47 0.43 0.41 0.42 0.42 0.46 0.49 0.49 0.53 0.64 0.66 0.58 0.53 0.48 0.40 0.52 0.58 0.49 0.42 0.41 0.37 0.28 0.30 0.28 0.27 0.26 0.31 0.36 0.51 0.51 0.41 0.38 0.40 0.37 0.38 0.43 0.43 0.38 0.39 0.36 0.38
0.01 0.01 0.01 0.00 0.00 0.00 0.00 0.02 0.00 0.00 0.00 0.00 0.00 0.00 0.00 0.00 0.00 0.00 0.00 0.00 0.00 0.00 0.00 0.00 0.00 0.02 0.05 0.08 0.12 0.14 0.16 0.19 0.21 0.21 0.21 0.18 0.19 0.19 0.23 0.28 0.39 0.48 0.50 0.46 0.44 0.46 0.47 0.49 0.50 0.53 0.54 0.51 0.54 0.64 0.75 0.76 0.71 0.63 0.50 0.56 0.62 0.56 0.54 0.40 0.29 0.27 0.22 0.23 0.18 0.25 0.28 0.33 0.43 0.37 0.36 0.36 0.38 0.35 0.39 0.45 0.47 0.40 0.37 0.33 0.34
0.04 0.01 0.00 0.00 0.00 0.00 0.00 0.04 0.00 0.00 0.00 0.00 0.00 0.00 0.00 0.00 0.00 0.00 0.00 0.00 0.00 0.00 0.00 0.00 0.00 0.00 0.01 0.03 0.06 0.09 0.13 0.18 0.20 0.18 0.17 0.18 0.21 0.26 0.31 0.35 0.39 0.50 0.54 0.51 0.45 0.44 0.45 0.50 0.54 0.57 0.57 0.53 0.50 0.52 0.66 0.72 0.73 0.70 0.67 0.65 0.62 0.57 0.53 0.41 0.31 0.22 0.21 0.26 0.25 0.33 0.39 0.39 0.40 0.44 0.35 0.27 0.29 0.29 0.32 0.42 0.40 0.42 0.44 0.41 0.33
0.03 0.01 0.00 0.00 0.02 0.03 0.01 0.00 0.00 0.00 0.00 0.00 0.00 0.00 0.00 0.00 0.00 0.00 0.00 0.00 0.00 0.00 0.00 0.00 0.00 0.00 0.00 0.01 0.01 0.03 0.06 0.10 0.13 0.16 0.15 0.16 0.19 0.22 0.27 0.33 0.39 0.43 0.52 0.57 0.51 0.48 0.51 0.52 0.52 0.57 0.64 0.64 0.56 0.53 0.60 0.71 0.74 0.77 0.81 0.71 0.77 0.74 0.59 0.45 0.36 0.26 0.22 0.22 0.25 0.29 0.31 0.28 0.36 0.43 0.38 0.27 0.25 0.22 0.28 0.32 0.30 0.32 0.34 0.38 0.33
0.01 0.00 0.00 0.01 0.01 0.00 0.00 0.00 0.00 0.00 0.00 0.00 0.00 0.00 0.00 0.00 0.00 0.00 0.00 0.00 0.00 0.00 0.00 0.00 0.00 0.00 0.00 0.00 0.00 0.01 0.02 0.03 0.06 0.08 0.12 0.15 0.19 0.21 0.23 0.25 0.33 0.40 0.48 0.55 0.51 0.45 0.48 0.52 0.53 0.55 0.61 0.68 0.66 0.59 0.60 0.72 0.79 0.77 0.82 0.76 0.74 0.74 0.54 0.44 0.31 0.23 0.21 0.21 0.25 0.28 0.28 0.28 0.32 0.42 0.38 0.32 0.21 0.16 0.24 0.26 0.29 0.31 0.30 0.30 0.27
0.01 0.01 0.00 0.00 0.00 0.00 0.00 0.00 0.00 0.00 0.00 0.00 0.00 0.00 0.00 0.00 0.00 0.00 0.00 0.00 0.00 0.00 0.00 0.00 0.00 0.00 0.00 0.00 0.00 0.00 0.00 0.00 0.01 0.03 0.05 0.08 0.13 0.21 0.24 0.22 0.23 0.32 0.42 0.48 0.49 0.47 0.44 0.43 0.44 0.48 0.54 0.62 0.67 0.66 0.67 0.76 0.87 0.91 0.86 0.80 0.73 0.73 0.63 0.44 0.31 0.25 0.25 0.22 0.22 0.23 0.22 0.26 0.34 0.44 0.42 0.27 0.18 0.16 0.21 0.29 0.31 0.29 0.28 0.25 0.25
0.00 0.00 0.00 0.00 0.00 0.00 0.00 0.00 0.00 0.00 0.00 0.00 0.00 0.00 0.00 0.00 0.00 0.00 0.00 0.00 0.00 0.00 0.00 0.00 0.00 0.00 0.00 0.00 0.00 0.00 0.00 0.00 0.00 0.00 0.01 0.02 0.05 0.09 0.16 0.24 0.25 0.26 0.32 0.41 0.47 0.47 0.44 0.42 0.39 0.41 0.46 0.55 0.63 0.68 0.73 0.79 0.87 0.99 0.99 0.90 0.86 0.80 0.67 0.46 0.34 0.30 0.27 0.23 0.26 0.26 0.31 0.36 0.44 0.50 0.44 0.32 0.27 0.23 0.23 0.32 0.34 0.27 0.22 0.20 0.20
0.00 0.00 0.00 0.00 0.00 0.00 0.00 0.00 0.00 0.01 0.00 0.00 0.00 0.00 0.00 0.00 0.00 0.00 0.00 0.00 0.00 0.00 0.00 0.00 0.00 0.00 0.00 0.00 0.00 0.00 0.00 0.00 0.00 0.00 0.00 0.00 0.01 0.03 0.06 0.12 0.21 0.26 0.27 0.32 0.40 0.45 0.45 0.43 0.41 0.40 0.41 0.45 0.53 0.63 0.70 0.79 0.88 0.98 1.05 1.03 0.91 0.73 0.60 0.51 0.42 0.36 0.29 0.25 0.30 0.34 0.34 0.36 0.43 0.53 0.50 0.48 0.47 0.39 0.35 0.31 0.26 0.28 0.25 0.21 0.23
0.01 0.00 0.00 0.00 0.00 0.00 0.00 0.00 0.00 0.00 0.00 0.00 0.00 0.00 0.00 0.00 0.00 0.00 0.00 0.00 0.00 0.00 0.00 0.00 0.00 0.00 0.00 0.00 0.00 0.00 0.00 0.00 0.00 0.00 0.00 0.00 0.00 0.00 0.01 0.03 0.09 0.16 0.24 0.29 0.33 0.37 0.41 0.42 0.42 0.43 0.45 0.45 0.46 0.50 0.58 0.68 0.81 0.95 1.01 0.94 0.81 0.72 0.61 0.54 0.50 0.42 0.34 0.31 0.33 0.37 0.40 0.40 0.44 0.44 0.40 0.37 0.35 0.33 0.31 0.28 0.26 0.26 0.26 0.25 0.24
0.03 0.00 0.00 0.00 0.00 0.00 0.00 0.00 0.00 0.00 0.00 0.00 0.00 0.00 0.00 0.00 0.00 0.00 0.00 0.00 0.00 0.00 0.00 0.00 0.00 0.00 0.00 0.00 0.00 0.00 0.00 0.00 0.00 0.00 0.00 0.00 0.00 0.00 0.00 0.01 0.02 0.06 0.12 0.19 0.25 0.31 0.34 0.37 0.40 0.43 0.46 0.47 0.46 0.44 0.47 0.57 0.68 0.73 0.75 0.73 0.70 0.65 0.59 0.55 0.51 0.47 0.41 0.36 0.33 0.33 0.38 0.43 0.45 0.43 0.37 0.33 0.29 0.29 0.30 0.30 0.29 0.29 0.30 0.29 0.27